Regional Weather Roundup
Issued by NWS Cleveland, OH

Home | Current Version | Previous Version | Graphics & Text | Print | Product List | Glossary On
Versions: 1 2 3 4 5 6 7 8 9 10 11 12 13 14 15 16 17 18 19 20 21 22 23 24 25 26 27 28 29 30 31 32 33 34 35 36 37 38 39 40 41 42 43 44 45 46 47 48 49 50
000
ASUS41 KCLE 072110
RWRCLE
OHIO REGIONAL WEATHER ROUNDUP
NATIONAL WEATHER SERVICE CLEVELAND, OH
400 PM EST SUN FEB 07 2016

NOTE: "FAIR" INDICATES FEW OR NO CLOUDS BELOW 12,000 FEET WITH NO
SIGNIFICANT WEATHER AND/OR OBSTRUCTIONS TO VISIBILITY.

OHZ001>008-015>018-024>027-034-035-043-044-072200-
   NORTHWEST OHIO

CITY           SKY/WX    TMP DP  RH WIND       PRES   REMARKS
DEFIANCE       CLOUDY    49  29  46 S16G23    29.79F
FINDLAY        MOSUNNY   50  29  44 SW20G30   29.81F
TOLEDO EXPRESS PTSUNNY   49  28  44 SW18G33   29.79F
TOLEDO EXEC    CLOUDY    51  28  41 SW23G36   29.81S
LIMA           MOSUNNY   49  28  44 S18G28    29.82F
$$

OHZ009>014-019>023-028>033-038-089-072200-
   NORTHEAST OHIO

CITY           SKY/WX    TMP DP  RH WIND       PRES   REMARKS
CLE-HOPKINS    CLOUDY    51  27  39 SW16G24   29.89F
CLE-LAKEFRONT  CLOUDY    52  29  41 S17       29.86F
CUY CO. ARPT   CLOUDY    50  28  43 SW16      29.88F
LORAIN-ELYRIA  MOSUNNY   49  27  42 SW21G26   29.86F
ASHTABULA      CLOUDY    49  28  44 S9        29.89F
AKRON-CANTON   PTSUNNY   48  26  42 SW13      29.90F
WOOSTER        SUNNY     48  27  44 SW12G23   29.89F
MANSFIELD      SUNNY     49  28  44 S18G24    29.87F
YOUNGSTOWN     PTSUNNY   50  26  39 SW10G21   29.89F
$$

OHZ042-051>053-060>062-070>072-077>081-072200-
  SOUTHWEST OHIO

CITY           SKY/WX    TMP DP  RH WIND       PRES   REMARKS
CINC-COVINGTON CLOUDY    50  21  32 S16G23    29.90F
CINC-LUNKEN    CLOUDY    52  23  32 S20       29.92F
HAMILTON       SUNNY     53  20  27 SW17G26   29.90F
DAYTON         PTSUNNY   51  22  31 SW21G30   29.87F
WRIGHT-PAT AFB PTSUNNY   53  20  27 S18       29.87F
DAYTON GENERAL SUNNY     52  20  28 SW18G25   29.87F
WILMINGTON     SUNNY     51  24  34 S16G24    29.89F
$$

OHZ036-037-039>041-045>050-054>059-063>069-073>076-082>088-072200-
  CENTRAL AND SOUTHEAST OHIO

CITY           SKY/WX    TMP DP  RH WIND       PRES   REMARKS
COLUMBUS       PTSUNNY   51  20  29 SW16G26   29.91F
OSU AIRPORT    SUNNY     51  25  36 S16G23    29.89F
BOLTON FIELD   SUNNY     52  27  37 SW18G24   29.91F
RICKENBACK AFB SUNNY     51  24  34 SW16G23   29.90F
NEWARK         MOSUNNY   51  25  36 S14G21    29.91F
MARION         SUNNY     50  26  39 S16G29    29.87F
LANCASTER      MOSUNNY   52  24  33 SW10      29.92F
ZANESVILLE     MOSUNNY   53  24  32 SW6       29.91F
NEW PHILLY     MOSUNNY   51  25  36 SW10G18   29.92F
$$



USA.gov is the U.S. government's official web portal to all federal, state and local government web resources and services.